www.pogodaiklimat.ru

Погода и климат >> Архив погоды >> Россия >> Коми >> Усть-Уса


АРХИВ ПОГОДЫ в Усть-Усе

Время (UTC), дата Ветер
(напр.,м/с)
 
Видим.   Явления Облачность Т
(С)
Тd
(С)
f
(%)
Тe
(С)
Тes
(С)
Комфортность P
(гПа)
Po
(гПа)
Тmin
(С)
Tmax
(С)
R
(мм)
R24
(мм)
S
(см)
12 13.05 СВ 3 50 км 10/0
[Ac und]
+4.6 -5.0 50 +2 +3 1026.9 1017.2
15 13.05 СВ 4 50 км 4/0
[Ac trans]
+2.8 -3.5 63 -2 -1 1027.3 1017.6 +6.2 0.0
18 13.05 СВ 3 50 км 4/0
[Ac trans]
+1.2 -4.3 67 -3 -3 1028.3 1018.5
21 13.05 СВ 4 50 км 3/0
[Ac trans]
-1.0 -5.8 70 -6 -6 1028.9 1019.0
00 14.05 В 2 50 км 3/0
[Ac trans]
-2.2 -6.6 72 -6 -6 1029.8 1019.9
03 14.05 В 2 50 км 3/0
[Ac trans Ci fib]
0.0 -6.0 64 -3 -0 1030.3 1020.5 -2.6 1
06 14.05 ЮВ 2 50 км 9/0
[Ci fib]
+3.9 -3.4 59 +2 +9 1030.2 1020.5
09 14.05 ЮВ 3 50 км 9/0
[Cs]
+6.3 -1.8 56 +4 +11 1030.1 1020.4
12 14.05 ЮВ 2 50 км 9/0
[Ac trans Ci sp]
+7.9 -1.1 53 +6 +11 1029.4 1019.9
15 14.05 ЮВ 2 50 км 9/0
[Cs]
+7.4 -1.3 54 +6 +7 1028.6 1019.0 +8.4
18 14.05 ЮВ 2 50 км 3/0
[Ci fib]
+4.8 -2.5 59 +3 +3 1028.5 1018.8
21 14.05 Ю 2 50 км ясно +2.1 -5.7 56 -1 -1 1028.4 1018.6
00 15.05 ЮВ 3 50 км ясно +0.9 -5.5 62 -3 -3 1028.4 1018.6
03 15.05 ЮВ 4 50 км 3/0
[Ci fib]
+3.7 -4.6 55 -0 +2 1026.8 1017.1 +0.7 <0.5
06 15.05 ЮВ 5
{10}
50 км 1/0
[Ci fib]
+7.3 -4.5 43 +4 +9 1024.7 1015.1
09 15.05 ЮВ 6 50 км 1/0
[Ci fib]
+10.1 -3.3 39 +7 +11 1022.7 1013.2
12 15.05 ЮВ 4 50 км 4/0
[Ac trans Ci fib]
+11.0 -2.4 39 +9 +12 1020.7 1011.3
15 15.05 ЮВ 4 50 км 9/0
[Ac trans]
+9.3 -4.6 37 +7 +7 1019.0 1009.5 +11.6
18 15.05 ЮВ 3 50 км {дождь} 10/0
[Ac As]
+7.3 -3.6 46 +5 +5 1018.0 1008.5
21 15.05 СЗ 3 20 км слаб. дождь 10/6 240 м
[Frnb Ac As]
+3.7 +2.7 93 -0 -0 1018.4 1008.8
00 16.05 СЗ 3 20 км слаб. дождь 10/10 270 м
[Frnb Ns]
+1.8 +0.5 91 -3 -3 1019.3 1009.8
03 16.05 СЗ 2 50 км в посл. час дождь 10/10 600 м
[Sc]
+2.0 -0.4 84 -1 -1 1019.2 1009.5 +1.3 4 0
06 16.05 СЗ 1 50 км {дождь} 9/9 660 м
[Sc]
+3.1 -1.6 71 +2 +3 1019.0 1009.4
09 16.05 С 1 50 км 9/9 870 м
[Sc]
+4.7 -1.8 63 +4 +5 1018.4 1008.8
12 16.05 Ю 2 50 км 10/4 1000 м
[Sc Ac und]
+5.2 -2.2 59 +3 +4 1017.9 1008.4
15 16.05 Ю 1 50 км 9/9 1050 м
[Cb calv]
+4.8 -1.7 63 +4 +4 1016.9 1007.4 +5.9
18 16.05 СЗ 1 50 км 10/10 540 м
[Cb calv]
+3.4 -1.5 70 +2 +2 1015.8 1006.2
21 16.05 З 2 50 км 10/10 480 м
[Cb calv]
+1.9 -1.3 79 -1 -1 1014.1 1004.5
00 17.05 З 1 50 км 10/10 870 м
[Sc]
+1.3 -0.8 86 -1 -1 1012.3 1002.7
03 17.05 З 2 50 км 9/4 1000 м
[Sc Ac trans]
+2.7 -1.3 75 -0 +1 1010.5 1000.9 +1.3
06 17.05 Ю 2 50 км 8/4 1000 м
[Sc Ac trans]
+4.8 -1.2 65 +3 +6 1008.8 999.3
09 17.05 ЮВ 1 50 км 8/4 1000 м
[Sc Ac trans]
+6.5 -1.9 55 +6 +10 1007.5 998.1
12 17.05 ЮЗ 2 50 км 5/4 1000 м
[Sc Ac trans]
+7.2 -3.1 48 +6 +9 1007.1 997.7
15 17.05 С 3 50 км {ливн. осадки} 3/3 300 м
[Cb calv Ac trans]
+5.4 -3.4 53 +3 +3 1006.7 997.2 +7.3 0.0
18 17.05 С 2 50 км {ливн. осадки} 9/8 240 м
[Frnb Ac trans]
+2.8 -1.3 74 -0 -0 1006.1 996.5
21 17.05 С 3 20 км слаб. ливневой снег 8/4 300 м
[Cb calv Ac trans]
+1.4 -1.2 83 -3 -3 1004.7 995.1
00 18.05 С 4 50 км {ливн. осадки} 6/1 1000 м
[Sc Ac trans Ci fib]
+0.3 -1.4 88 -5 -5 1003.5 993.9
03 18.05 СЗ 4 10 км слаб. снег 10/6 270 м
[Frnb Ac As]
+0.2 -0.8 93 -5 -5 1002.1 992.5 -0.1 0.3
06 18.05 СЗ 6-10
{12}
4000 м слаб. снег 10/8 240 м
[Frnb Ac As]
-0.0 -0.9 94 -7 -7 999.6 990.0
09 18.05 С 4
{10}
10 км слаб. снег 10/6 270 м
[Frnb Ac As]
+1.5 +0.9 96 -4 -3 999.1 989.6
12 18.05 С 4
{10}
50 км {снег, дождь} 9/8 300 м
[Frnb Ac trans]
+2.7 +0.9 88 -2 -2 1000.5 991.0
15 18.05 С 3 50 км 9/9 720 м
[Sc]
+2.5 +1.0 90 -2 -2 1002.0 992.5 +2.8 3
18 18.05 С 4 50 км 10/10 900 м
[Sc]
+2.1 +0.8 91 -3 -3 1003.5 994.0
21 18.05 С 4 50 км 9/9 840 м
[Sc]
+1.2 0.0 92 -4 -4 1004.5 994.9
00 19.05 С 4 50 км 10/0
[Ac und]
+1.6 +0.3 91 -4 -3 1005.6 996.1
03 19.05 СВ 6-11
{11}
50 км 1/0
[Ac trans]
+4.2 -0.6 71 -1 0 1006.8 997.3 +1.1
06 19.05 С 6-10
{12}
50 км ясно +6.9 -2.3 52 +3 +7 1008.8 999.4
09 19.05 С 5
{11}
50 км ясно +8.3 -2.3 47 +5 +11 1010.2 1000.8
12 19.05 С 6
{12}
50 км 1/1 1500 м
[Cu hum]
+8.5 -3.0 44 +5 +7 1011.3 1002.0
15 19.05 С 5
{11}
50 км 1/0
[Ci fib]
+6.7 -4.7 44 +3 +4 1012.6 1003.2 +8.9
18 19.05 С 4
{11}
50 км 3/0
[Ac trans]
+3.1 -3.3 63 -1 -1 1012.9 1003.3
21 19.05 С 4 50 км ясно -0.5 -4.4 75 -6 -6 1013.2 1003.5
00 20.05 С 5
{10}
50 км 3/3 1000 м
[Sc]
-2.3 -5.0 82 -9 -9 1013.6 1003.8
03 20.05 С 6
{11}
50 км 9/9 480 м
[Cb calv]
-2.3 -5.8 77 -9 -9 1014.9 1005.1 -2.9
06 20.05 С 6
{11}
50 км 9/9 420 м
[Cb calv]
-1.2 -5.4 73 -8 -7 1015.5 1005.7
09 20.05 СЗ 6-10
{11}
50 км 3/3 1000 м
[Cu hum]
+1.9 -5.1 60 -4 -1 1016.1 1006.4

 

Местоположение метеостанции Усть-Уса (Коми, Россия): широта 65.97 долгота 56.92 высота над уровнем моря 78 м.

В архиве по умолчанию представлена погода в Усть-Усе за последнюю неделю. Архивные данные за месяц целиком и за предыдущие месяцы, начиная с января 2011 года, Вы можете получить, выбрав интересующий диапазон дат из раскрывающегося списка и нажав кнопку "Ввод!".


*Определитесь, кто Вы:
робот инопланетянин человек

Внимание! Время в таблицах - всемирное. Для получения местного времени необходимо прибавить поправку, которая равна 3 ч.

Смотрите также архив погоды в соседних городах и на ближайших метеорологических станциях:

Погода в Усинске (Коми, Россия) (21 км)
Погода в Мутном Материке (Коми, Россия) (79 км)
Погода в Печоре (Коми, Россия) (95 км)
Погода в Харуте (Ненецкий АО, Россия) (152 км)
Погода в Хорей-Вере (Ненецкий АО, Россия) (169 км)
Погода в Ижме (Коми, Россия) (175 км)
Погода в Ираеле (Коми, Россия) (176 км)
Погода в Петруни (Коми, Россия) (180 км)
Погода в Усть-Щугоре (Коми, Россия) (192 км)
Погода в Окуневом Носу (Коми, Россия) (198 км)

Пояснения к столбцам:

Ветер - указаны скорость ветра в м/с - средняя за 10 мин, порывы в срок и между сроками (в фигурных скобках) и направление, откуда дует ветер: С - северный, СВ - северо-восточный, В - восточный, ЮВ - юго-восточный, Ю - южный, ЮЗ - юго-западный, З - западный, СЗ - северо-западный.
Видимость - горизонтальная дальность видимости в метрах или километрах. При видимости от 1 до 10 км при отсутствии осадков обычно наблюдается дымка, при ухудшении видимости до 1 км и менее - туман. В сухую погоду видимость может ухудшаться дымом, пылью или мглою.
Явления - указаны атмосферные явления, наблюдавшиеся в срок или в последний час перед сроком; фигурными скобками обозначены явления, наблюдавшиеся между сроками (за 1-3 часа до срока); квадратными скобками обозначены град или гололедные отложения с указанием их диаметра в мм.
Облачность - указаны через наклонную черту общая и нижняя облачность в баллах и высота нижней границы облаков в метрах; квадратными скобками обозначены формы облаков: Ci - перистые, Cs - перисто-слоистые, Cc - перисто-кучевые, Ac - высококучевые, As - высокослоистые, Sc - слоисто-кучевые, Ns - слоисто-дождевые, Cu - кучевые, Cb - кучево-дождевые. Подробнее классификацию облаков см. в Атласе облаков (PDF).
T - Температура воздуха - температура, измеренная на высоте 2 м над землей.
Td - Температура точки росы - температура, при понижении до которой содержащийся в воздухе водяной пар достигнет насыщения.
f - Относительная влажность воздуха - влажноcть воздуха, измеренная на высоте 2 м над землей.
Te - Эффективная температура - температура, которую ощущает одетый по сезону человек в тени. Характеристика душности погоды. При расчете учитывается влияние влажности воздуха и скорости ветра на теплоощущения человека.
Tes - Эффективная температура на солнце - температура, которую ощущает человек, с поправкой на солнечный нагрев. Характеристика знойности погоды. Зависит от высоты солнца над горизонтом, облачности и скорости ветра. Ночью, в пасмурную погоду, а также при ветре 12 м/с и более поправка равна нулю.
P - Атмосферное давление - приведенное к уровню моря атмосферное давление.
Po - Атмосферное давление - измеренное на уровне метеостанции атмосферное давление.
Tmin - Минимальная температура - минимум температуры воздуха на высоте 2 м над землей.
Tmax - Максимальная температура - максимум температуры воздуха на высоте 2 м над землей.
R - Количество осадков - Количество выпавших осадков за период времени, мм. При наведении курсора мыши на число - период времени, за который выпало указанное количество осадков.
R24 - Количество осадков - Количество выпавших осадков за 24 часа, мм.
S - Снежный покров - Высота снежного покрова, см. При наведении курсора мыши на число - состояние снежного покрова и степень покрытия местности в баллах.